{"data":{"norad_id":66742,"intl_designator":"2025-276CE","name":"MERCURY ONE (M1)","alt_names":[],"object_type":"PAYLOAD","status":"ACTIVE","operator":null,"country":"US","launch_date":"2025-11-28","launch_site_code":"AFWTR","launch_vehicle":null,"mission":null,"orbit_class":"UNKNOWN","rcs_meters":null,"size_class":null,"mass_kg":null,"dimensions":null,"purposes":[],"wikipedia_slug":null,"has_3d_model":false,"image_url":null,"decayed_at":null,"tle_current":{"epoch":"2026-09-20T10:59:13.331616Z","epoch_age_seconds":121270,"freshness":"FRESH","line1":"1 66742U 25276CE  26263.45779319  .00002720  00000+0  12834-3 0  9992","line2":"2 66742  97.4112 335.3783 0002686  35.7881 324.3534 15.20295515 44891","mean_motion":15.20295515,"eccentricity":0.0002686,"inclination_deg":97.4112,"raan_deg":335.3783,"arg_perigee_deg":35.7881,"mean_anomaly_deg":324.3534,"bstar":0.00012834,"rev_number":4489,"period_min":94.718427160525,"perigee_km":503.09971648554,"apogee_km":506.79731002326,"semimajor_km":6883.0855132544,"source":"CELESTRAK","updated_at":"2026-09-21T09:00:16.175598Z"}}}